C/2023 F3 ( ATLAS )

Japanese version
Home page
Updated on December 1, 2023

---------------------------------------------------------------------

* Profile

Discovery Date March 28, 2023
Magnitude 18.8 mag
Discoverer Asteroid Terrestrial-Impact Last Alert System (ATLAS) search program

* Pictures

* Orbital Elements

Epoch 2023 Sept. 13.0 TT = JDT 2460200.5
T 2025 Feb. 2.87168 TT                                  Rudenko
q   5.1898288            (2000.0)            P               Q
z  -0.0008131      Peri.  265.54762     -0.75314445     -0.39253658
 +/-0.0000217      Node   109.44398     -0.09744804     +0.86018663
e   1.0042198      Incl.  145.95537     -0.65059766     +0.32556718
>From 150 observations 2023 Mar. 28-Sept. 14, mean residual 0".5.

* Finding Charts

* Magnitudes Graph

        m1 = 5.0 + 5 log d + 10.0 log r

---------------------------------------------------------------------

The orbital elements are published on M.P.E.C. 2023-S260.
The charts are made with StellaNavigator Ver.11 (AstroArts).
The magnitudes graphs are made with Comet for Windows.

---------------------------------------------------------------------

Copyright(C) Seiichi Yoshida (comet@aerith.net). All rights reserved.